TimeEDT,TemperatureF,Dew PointF,Humidity,Sea Level PressureIn,VisibilityMPH,Wind Direction,Wind SpeedMPH,Gust SpeedMPH,PrecipitationIn,Events,Conditions,WindDirDegrees,DateUTC
12:54 AM,37.9,36.0,93,29.95,-9999.0,Calm,Calm,-,N/A,,Unknown,0,2012-10-17 04:54:00
1:54 AM,37.9,36.0,93,29.96,-9999.0,Calm,Calm,-,N/A,,Unknown,0,2012-10-17 05:54:00
2:54 AM,37.0,35.1,93,29.96,-9999.0,Calm,Calm,-,N/A,,Unknown,0,2012-10-17 06:54:00
3:54 AM,36.0,35.1,97,29.96,-9999.0,Calm,Calm,-,N/A,,Unknown,0,2012-10-17 07:54:00
4:54 AM,35.1,34.0,96,29.97,-9999.0,Calm,Calm,-,N/A,,Unknown,0,2012-10-17 08:54:00
6:54 AM,35.1,34.0,96,30.00,-9999.0,Calm,Calm,-,N/A,,Unknown,0,2012-10-17 10:54:00
7:54 AM,36.0,34.0,93,30.01,-9999.0,Calm,Calm,-,N/A,,Unknown,0,2012-10-17 11:54:00
8:54 AM,39.9,39.0,97,30.04,-9999.0,Calm,Calm,-,N/A,,Unknown,0,2012-10-17 12:54:00
9:54 AM,46.0,39.9,79,30.04,-9999.0,Calm,Calm,-,N/A,,Unknown,0,2012-10-17 13:54:00
10:54 AM,52.0,39.0,61,30.03,-9999.0,ENE,3.5,-,N/A,,Unknown,60,2012-10-17 14:54:00
11:54 AM,54.0,37.9,55,30.02,-9999.0,SW,3.5,-,N/A,,Unknown,230,2012-10-17 15:54:00
12:54 PM,57.9,37.9,47,29.99,-9999.0,Calm,Calm,-,N/A,,Unknown,0,2012-10-17 16:54:00
1:54 PM,60.1,37.9,44,29.97,-9999.0,Variable,3.5,-,N/A,,Unknown,0,2012-10-17 17:54:00
2:54 PM,62.1,37.0,39,29.95,-9999.0,Calm,Calm,-,N/A,,Unknown,0,2012-10-17 18:54:00
3:54 PM,63.0,36.0,37,29.94,-9999.0,SSW,3.5,-,N/A,,Unknown,210,2012-10-17 19:54:00
4:54 PM,63.0,37.0,38,29.94,-9999.0,Variable,4.6,-,N/A,,Unknown,0,2012-10-17 20:54:00
5:54 PM,55.9,41.0,57,29.96,-9999.0,Calm,Calm,-,N/A,,Unknown,0,2012-10-17 21:54:00
6:54 PM,51.1,44.1,77,29.97,-9999.0,Calm,Calm,-,N/A,,Unknown,0,2012-10-17 22:54:00
7:54 PM,48.0,44.1,86,29.99,-9999.0,Calm,Calm,-,N/A,,Unknown,0,2012-10-17 23:54:00
8:54 PM,46.0,43.0,89,30.00,-9999.0,Calm,Calm,-,N/A,,Unknown,0,2012-10-18 00:54:00
9:54 PM,45.0,43.0,93,30.01,-9999.0,Calm,Calm,-,N/A,,Unknown,0,2012-10-18 01:54:00
10:54 PM,44.1,42.1,93,30.01,-9999.0,Calm,Calm,-,N/A,,Unknown,0,2012-10-18 02:54:00
11:54 PM,43.0,39.9,89,30.00,-9999.0,Calm,Calm,-,N/A,,Unknown,0,2012-10-18 03:54:00